Regional Weather Roundup
Issued by NWS

Home | Current Version | Previous Version | Text Only | Print | Product List | Glossary On
Versions: 1 2 3 4 5 6 7 8 9 10 11 12 13 14 15 16 17 18 19 20 21 22 23 24 25 26 27 28 29 30 31 32 33 34 35 36 37 38 39 40 41 42 43 44 45 46 47 48 49 50
000
ASUS43 KMKX 242200
RWRWI

WISCONSIN REGIONAL WEATHER ROUNDUP
NATIONAL WEATHER SERVICE MILWAUKEE/SULLIVAN WI
500 PM CDT SAT SEP 24 2016

NOTE: "FAIR" INDICATES FEW OR NO CLOUDS BELOW 12,000 FEET WITH NO
SIGNIFICANT WEATHER AND/OR OBSTRUCTIONS TO VISIBILITY.

WIZ001-002-006>008-014>016-023>028-242300-
NORTHWEST WISCONSIN

CITY           SKY/WX    TMP DP  RH WIND       PRES   REMARKS
SUPERIOR ARPT  CLOUDY    60  58  94 NE7       30.06F
ASHLAND        CLOUDY    68  60  75 E7        30.08F
HAYWARD        CLOUDY    67  59  75 SE8       30.07F
SIREN          CLOUDY    67  60  79 SE9       30.04F
CUMBERLAND     CLOUDY    64  59  82 SE12      30.07F
RICE LAKE      CLOUDY    67  59  76 SE9       30.09S
CHETEK         NOT AVBL
LADYSMITH      PTSUNNY   69  58  68 SE10      30.11F
EAU CLAIRE     CLOUDY    66  60  81 SE9       30.07F
MENOMONIE      CLOUDY    67  61  79 E13G18    30.07F
NEW RICHMOND   CLOUDY    67  60  78 SE12G17   30.04F
OSCEOLA        CLOUDY    68  65  88 SE16G22   30.06S
$$

WIZ003>005-009-010-017-018-242300-
NORTH CENTRAL WISCONSIN

CITY           SKY/WX    TMP DP  RH WIND       PRES   REMARKS
MANITOWISH WTR NOT AVBL
ARBOR VITAE    SUNNY     69  54  58 S8G17     30.14F
WOODRUFF       SUNNY     69  54  58 S8G17     30.14F
RHINELANDER    SUNNY     67  54  63 SE9       30.16F
EAGLE RIVER    SUNNY     67  50  53 SE12      30.15F
LAND O LAKES   SUNNY     68  52  55 SE9       30.17F
PHILLIPS       MOSUNNY   69  59  70 S9G16     30.11F
TOMAHAWK       SUNNY     67  54  62 SE7       30.15F
MEDFORD        SUNNY     67  55  65 SE10G16   30.12F
MERRILL        SUNNY     68  55  64 SE12      30.15F
$$

WIZ029-030-035-036-043>047-242300-
CENTRAL WISCONSIN

CITY           SKY/WX    TMP DP  RH WIND       PRES   REMARKS
WAUSAU         SUNNY     68  53  58 SE12      30.13F
MOSINEE        SUNNY     66  55  68 SE13      30.15F
MARSHFIELD     CLOUDY    67  56  67 SE14      30.12F
STEVENS POINT  MOSUNNY   65  55  67 SE12      30.15F
WAUPACA        PTSUNNY   69  57  64 E10       30.16F
WAUTOMA        CLOUDY    68  59  73 E8        30.14F
WISC RAPIDS    LGT RAIN  68  59  73 SE8G18    30.14F
CAMP DOUGLAS   CLOUDY    66  60  80 SE12      30.11F
$$

WIZ011>013-019>022-031-037>040-048>050-242300-
NORTHEAST WISCONSIN

CITY           SKY/WX    TMP DP  RH WIND       PRES   REMARKS
ANTIGO         MOSUNNY   64  54  69 SE10      30.18F
SHAWANO        PTSUNNY   72  52  49 E6        30.17F
OCONTO         NOT AVBL
STURGEON BAY   SUNNY     64  51  62 SE9       30.21F
GREEN BAY      SUNNY     68  54  60 SE12      30.18F
MANITOWOC      NOT AVBL
APPLETON       PTSUNNY   68  48  49 SE9       30.16F
CLINTONVILLE   NOT AVBL
OSHKOSH        CLOUDY    67  56  67 E9        30.16F
$$

WIZ032>034-041-042-053>061-242300-
SOUTHWEST WISCONSIN

CITY           SKY/WX    TMP DP  RH WIND       PRES   REMARKS
LA CROSSE      CLOUDY    71  63  75 SE8       30.07S
SPARTA         CLOUDY    66  61  84 E10       30.10F
VIROQUA        CLOUDY    66  62  87 SE9       30.10F
BOSCOBEL       CLOUDY    72  64  76 E5        30.09F
PRAIRIE DU CHI CLOUDY    72  64  76 E8        30.06F
PLATTEVILLE    CLOUDY    73  67  83 E10       30.10F
$$

WIZ056-057-062-063-064-067-068-242300-
SOUTH CENTRAL WISCONSIN

CITY           SKY/WX    TMP DP  RH WIND       PRES   REMARKS
REEDSBURG      NOT AVBL
BARABOO/DELLS  PTSUNNY   69  59  69 E7        30.12F
LONE ROCK      NOT AVBL
MINERAL POINT  CLOUDY    72  64  78 SE10      30.10F
MADISON        SUNNY     70  61  73 E13       30.12F
MIDDLETON      SUNNY     72  62  72 E10       30.13F
WATERTOWN      MOSUNNY   69  63  80 E12       30.14F
MONROE         SUNNY     72  63  73 E8        30.12F
JANESVILLE     PTSUNNY   73  63  68 E12G17    30.12F
$$

WIZ051-052-058>065-066-070>072-242300-
SOUTHEAST WISCONSIN

CITY           SKY/WX    TMP DP  RH WIND       PRES   REMARKS
MILWAUKEE      CLOUDY    67  60  78 E7        30.17F
WAUKESHA       CLOUDY    64  59  82 E10       30.18F
MILWAUKEE/TIMM CLOUDY    66  55  68 SE8       30.18F
RACINE         CLOUDY    67  60  78 E8        30.18F
BURLINGTON     CLOUDY    67  59  77 E6        30.16F
KENOSHA        CLOUDY    67  62  84 E12       30.16F
FOND DU LAC    CLOUDY    67  57  70 SE10      30.17F
SHEBOYGAN      MOSUNNY   64  55  72 SE6       30.19F
WEST BEND      CLOUDY    63  57  82 E7        30.18F
JUNEAU         CLOUDY    65  60  82 E12       30.17F
$$

LSZ147-162-242300-
LAKE SUPERIOR

STATION/POSITION TIME  TEMP    WIND        PRES    WAVE
                       AIR SEA DIR/SP/G            HT/PER
                 (UTC) (F)     (DEG/KT/KT) (MB)    (FT/S)
W MID LAKE BUOY  2050   63 62   90/ 14/ 16 1020.2F   2/ 4
DEVILS ISLAND    2100   62      80/ 15/ 16 1019.2F
SAXON HARBOR     2100   71      70/  2/  4 1019.3F
$$

LMZ867-665-643>646-242300-
LAKE MICHIGAN

STATION/POSITION TIME  TEMP    WIND        PRES    WAVE
                       AIR SEA DIR/SP/G            HT/PER
                 (UTC) (F)     (DEG/KT/KT) (MB)    (FT/S)
CHAMBERS ISLAND  2100   65     120/  4/  8 1023.0F
S GREEN BAY BUOY 2100   65 67  140/  8/  8 1022.5F
N MID LAKE BUOY  2050   62 68  110/ 10/ 14 1023.5F   1/ 3
NORTHPORT PIER   2100   64     120/  8/  9 1023.4F
KEWAUNEE LAKESHO 2100   64     130/  5/  7 1022.7F
SHEBOYGAN LAKESH 2100   64     130/  7/  7 1022.4F
PORT WASHINGTON  2100   66      60/  3/  4 1023.0
ATWATER BUOY     2100   64 62  100/  6/  8 1022.2F
MILWAUKEE LAKESH 2110   63      70/  6/  7   N/A
S MID LAKE BUOY  2050   68 72  100/ 10/ 12 1021.4F   2/ 3
KENOSHA   LAKESH 2100   68     100/  9/ 11 1021.3F
$$

TC  - TEMPERATURE IN CELSIUS
VSB - VISIBILITY IN STATUTE MILES
WCI - WIND CHILL INDEX
HX  - HEAT INDEX




USA.gov is the U.S. government's official web portal to all federal, state and local government web resources and services.